Location: Mactaquac Provincial Park
(45.9573°N, 66.8897°W)
Time: 08:36:07
(UTC-04:00)

CENTAUR R/B - Visible Passes

Search period start: 26 November 2014 00:00
Search period end: 06 December 2014 00:00
Orbit: 893 x 1296 km, 63.5° (Epoch: 24 November)

Date Brightness Start Highest point End Pass type
(mag) Time Alt. Az. Time Alt. Az. Time Alt. Az.
26 Nov 3.6 17:45:46 10° NNW 17:52:25 35° NNE 17:58:47 13° E visible
26 Nov 2.9 19:36:21 10° NW 19:43:57 84° SW 19:46:02 54° SSE visible
26 Nov 4.9 21:28:26 10° WNW 21:33:18 21° WSW 21:33:18 21° WSW visible
27 Nov 2.9 18:48:11 10° NW 18:55:43 70° NE 19:00:36 26° SE visible
27 Nov 4.3 20:39:25 10° NW 20:46:07 34° WSW 20:47:53 30° SW visible
28 Nov 3.2 18:00:05 10° NNW 18:07:19 50° NE 18:15:01 10° ESE visible
28 Nov 3.7 19:50:53 10° NW 19:58:13 52° WSW 20:02:55 24° S visible
29 Nov 3.5 17:11:58 10° NNW 17:18:45 37° NE 17:25:58 10° E visible
29 Nov 3.1 19:02:34 10° NW 19:10:10 77° SW 19:18:12 10° SSE visible
29 Nov 5.1 20:54:58 10° WNW 20:59:56 19° WSW 21:05:01 10° SW visible
30 Nov 2.9 18:14:23 10° NW 18:21:57 76° NE 18:30:00 10° SE visible
30 Nov 4.6 20:05:47 10° NW 20:12:14 30° WSW 20:18:56 10° SSW visible
01 Dec 3.1 17:26:16 10° NW 17:33:35 54° NE 17:41:23 10° ESE visible
01 Dec 3.9 19:17:09 10° NW 19:24:22 47° WSW 19:31:56 10° S visible
02 Dec 3.3 18:28:47 10° NW 18:36:21 70° WSW 18:44:20 10° SSE visible
02 Dec 5.4 20:21:36 10° WNW 20:26:00 16° WSW 20:30:29 10° SW visible
03 Dec 3.0 17:40:35 10° NW 17:48:11 82° NE 17:56:15 10° SE visible
03 Dec 4.9 19:32:10 10° WNW 19:38:20 27° WSW 19:44:44 10° SSW visible
04 Dec 4.2 18:43:26 10° NW 18:50:31 42° WSW 18:57:55 10° S visible
05 Dec 3.6 17:55:01 10° NW 18:02:32 64° WSW 18:10:27 10° SSE visible
05 Dec 5.7 19:48:22 10° WNW 19:52:03 14° WSW 19:55:47 10° SW visible
